User: anonymous   Login
Location: Melbourne
(37.8170°S, 144.9670°E)
Time: 20:50:25
(UTC+10:00)
Language:

CZ-3 R/B - Orbit

View from above orbital plane
View from above orbital plane
View from above satellite
View from above satellite

Ground track
Ground track

The orbit data is extracted from the following two-line orbital elements,

1 29517U 06048B   17265.67896247 +.00007954 +00000-0 +45241-3 0  9996
2 29517 028.4303 008.7943 4346286 131.5884 274.8512 06.82262290174211
Epoch (UTC): 22 September 2017 16:17:42
Eccentricity: 0.4346286
inclination: 28.4303°
perigee height: 261 km
apogee height: 10468 km
right ascension of ascending node: 8.7943°
argument of perigee: 131.5884°
revolutions per day: 6.82262290
mean anomaly at epoch: 274.8512°
orbit number at epoch: 17421

The dashed part of the orbit path shows where the satellite is in the earth's shadow,  

DLR